THOR III

Last updated on June 16, 2019, 3:38 a.m. UTC

1 25358U 98035A   19164.93209017 -.00000058  00000-0  00000-0 0  9994
2 25358   6.6491  55.1618 0002682  24.6256 153.3934  1.00272413 77170
UTC
Height (km)
Latitude
Longitude
Inclination
Orbital Period
UTC large
Height (km)
Speed (km/s)
/
Latitude / Longitude
Inclination (degrees)
Orbital Period (minutes)
Azimuth
Elevation
Range (km)
Doppler Factor
iOS Compass Heading
iOS Angle

Next 30 passes for location: Hong Kong

Rise time Rise Azimuth (degrees) Set time Set Azimuth (degrees) Duration Max altitude (degrees)

No matching passes for this satellites